www.pogodaiklimat.ru

Погода и климат >> Архив погоды >> Франция >> Bordeaux


АРХИВ ПОГОДЫ в Bordeaux

Время (UTC), дата Ветер
(напр.,м/с)
 
Видим.   Явления Облачность Т
(С)
Тd
(С)
f
(%)
Тe
(С)
Тes
(С)
Комфортность P
(гПа)
Po
(гПа)
Тmin
(С)
Tmax
(С)
R
(мм)
R24
(мм)
S
(см)
22 10.11 Ю 3 55 км н/о +11.9 +11.0 94 +10 +10 тепло 1008.9 1003.1 0.0
23 10.11 Ю 3 60 км 9/9 2000 м
[]
+11.9 +11.0 94 +10 +10 тепло 1008.9 1003.1
00 11.11 Ю 2 60 км н/о +11.4 +10.5 94 +10 +10 тепло 1009.0 1003.2 0.0
02 11.11 Ю 3 60 км н/о +11.3 +10.0 92 +10 +10 тепло 1008.7 1002.9
01 11.11 Ю 2 60 км н/о +11.1 +10.2 94 +10 +10 тепло 1008.6 1002.8 0.2
03 11.11 ЮВ 3 60 км н/о +11.1 +9.5 90 +9 +9 тепло 1008.2 1002.4 0.2
04 11.11 Ю 2 55 км н/о +10.8 +9.4 91 +9 +9 тепло 1008.1 1002.3
05 11.11 Ю 2 60 км н/о +10.7 +9.1 90 +9 +9 тепло 1008.0 1002.2
06 11.11 Ю 2 60 км н/о +10.3 +9.1 92 +9 +9 тепло 1008.1 1002.3 +10.3 +12.6 2
08 11.11 ЮВ 2 50 км н/о +11.6 +9.7 88 +10 +10 тепло 1008.7 1002.9
07 11.11 ЮВ 2 55 км н/о +10.4 +9.2 92 +9 +9 по сезону 1008.1 1002.3
09 11.11 Ю 3 50 км н/о +14.2 +10.2 77 +13 +13 тепло 1009.3 1003.6
10 11.11 Ю 3 50 км н/о +17.5 +10.6 64 +17 +17 тепло 1009.4 1003.8
11 11.11 Ю 3 55 км 9/9
[]
+18.4 +10.5 60 +19 +19 тепло 1009.0 1003.4
12 11.11 Ю 2 45 км 8/8
[]
+18.4 +11.5 64 +19 +20 тепло 1009.0 1003.4
14 11.11 Ю 2 40 км 8/8 1500 м
[]
+18.5 +12.3 67 +20 +20 тепло 1009.0 1003.4
13 11.11 Ю 3 55 км н/о +19.2 +11.7 62 +21 +21 комфорт 1009.0 1003.4
15 11.11 ЮВ 2 60 км 10/10 1500 м
[]
+17.8 +12.9 73 +19 +19 тепло 1008.9 1003.3
16 11.11 СЗ 2 19 км 10/10 1500 м
[]
+17.3 +13.4 78 +18 +18 тепло 1009.6 1004.0
17 11.11 СВ 1 23 км 10/10 2000 м
[]
+16.2 +12.9 81 +17 +17 тепло 1009.5 1003.8
18 11.11 С 1 18 км слабый дождь 10/1 1000 м
[]
+15.5 +13.2 86 +17 +17 тепло 1009.7 1004.0 +10.3 +19.4 0.0
20 11.11 С 1 2300 м дождь 10/10 1500 м
[]
+14.4 +13.8 96 +15 +15 тепло 1010.0 1004.3 2
19 11.11 С 1 13 км слабый дождь 10/10 1500 м
[]
+14.7 +13.4 92 +16 +16 тепло 1009.8 1004.1 0.6
21 11.11 С 1 6000 м слабый дождь 10/9 570 м
[]
+14.1 +13.5 96 +15 +15 тепло 1010.3 1004.6 4
22 11.11 С 2 4600 м дымка 10/1 1260 м
[]
+13.7 +13.2 97 +13 +13 тепло 1009.6 1003.9 0.0
23 11.11 СВ 1 3700 м дымка 10/4 60 м
[]
+13.4 +12.9 97 +14 +14 тепло 1009.1 1003.4
00 12.11 СЗ 2 300 м туман ?/? +12.8 +12.5 98 +12 +12 тепло 1009.2 1003.5 0.0
02 12.11 С 2 16 км 10/10 90 м
[]
+11.6 +11.3 98 +11 +11 тепло 1009.5 1003.7
01 12.11 С 2 11 км 10/10 90 м
[]
+12.0 +11.7 98 +11 +11 тепло 1009.5 1003.7
03 12.11 СВ 1 60 км 10/10 150 м
[]
+11.5 +11.0 97 +11 +11 тепло 1009.7 1003.9
04 12.11 С 1 60 км 10/10 360 м
[]
+11.5 +10.7 95 +12 +12 тепло 1010.4 1004.6
05 12.11 С 1 60 км 10/10 420 м
[]
+11.5 +10.7 95 +12 +12 тепло 1011.5 1005.7
06 12.11 СЗ 1 35 км 10/10 300 м
[]
+11.4 +10.6 95 +11 +11 тепло 1012.8 1007.0 +11.4 +15.5 4
08 12.11 СЗ 3
{5}
50 км 10/10 100 м
[]
+11.3 +10.4 94 +9 +9 тепло 1015.6 1009.8
07 12.11 СЗ 2 40 км 10/10 420 м
[]
+11.2 +10.3 94 +10 +10 тепло 1013.9 1008.1
09 12.11 СЗ 1 30 км 10/5 180 м
[]
+11.4 +10.3 93 +11 +11 тепло 1016.3 1010.5
10 12.11 С 2 55 км 10/3 210 м
[]
+12.2 +10.8 91 +11 +12 тепло 1016.8 1011.0
11 12.11 СВ 1 60 км 10/1 240 м
[]
+12.4 +10.8 90 +12 +14 по сезону 1017.6 1011.8 0.0
12 12.11 ЮВ 1 19 км слабый дождь 10/1 300 м
[]
+12.4 +11.3 93 +12 +14 по сезону 1017.8 1012.0 0.2
14 12.11 Ю 1 19 км слабый дождь 10/1 240 м
[]
+12.3 +11.2 93 +13 +15 тепло 1018.1 1012.3 0.2
13 12.11 Ю 1 10 км слабый дождь 10/5 270 м
[]
+12.5 +11.4 93 +13 +14 тепло 1017.9 1012.1 0.4
15 12.11 штиль 0 45 км 10/10 1500 м
[]
+12.1 +10.8 92 +11 +11 по сезону 1018.3 1012.5 1
16 12.11 СЗ 1 11 км слабый дождь 10/1 90 м
[]
+12.1 +11.3 95 +12 +12 тепло 1018.5 1012.7 0.2
17 12.11 СЗ 1 11 км слабый дождь 10/10
[]
+11.7 +10.9 95 +11 +11 тепло 1019.1 1013.3 0.4
18 12.11 СЗ 1 13 км слабый дождь 10/6 1000 м
[]
+11.8 +11.2 96 +12 +12 тепло 1019.8 1014.0 +11.1 +12.6 1
20 12.11 С 1 12 км слабый дождь 10/1 120 м
[]
+11.5 +11.0 97 +11 +11 тепло 1021.0 1015.2 2
19 12.11 СЗ 2 6000 м слабый дождь 10/10 1500 м
[]
+11.7 +11.2 97 +11 +11 тепло 1020.5 1014.7 0.6
21 12.11 В 1 5000 м слабый дождь 10/10 1500 м
[]
+11.4 +10.9 97 +12 +12 тепло 1021.6 1015.8 5
22 12.11 З 1 29 км 10/10 2000 м
[]
+11.3 +10.8 97 +11 +11 тепло 1023.0 1017.2 0.0
23 12.11 штиль 0 3700 м слабый дождь 10/10 2000 м
[]
+11.1 +10.6 97 +10 +10 тепло 1023.4 1017.5 0.2
00 13.11 ЮВ 1 8000 м слабый дождь 10/10 2000 м
[]
+11.0 +10.7 98 +11 +11 тепло 1024.1 1018.2 0.2
02 13.11 Ю 1 400 м туман 8/6 800 м
[]
+10.3 +10.0 98 +10 +10 тепло 1025.5 1019.6 0.0
01 13.11 ЮЗ 1 2200 м дымка 10/1 500 м
[]
+10.9 +10.6 98 +11 +11 тепло 1024.9 1019.0 0.2
03 13.11 З 1 2300 м дымка 10/10 60 м
[]
+11.0 +10.8 99 +11 +11 тепло 1025.8 1019.9 0.2
04 13.11 Ю 1 3600 м дымка 8/8 870 м
[]
+10.9 +10.6 98 +11 +11 тепло 1026.2 1020.3
05 13.11 штиль 0 200 м туман 9/1 90 м
[]
+10.2 +9.7 97 +9 +9 тепло 1026.8 1020.9
06 13.11 штиль 0 100 м туман ?/? +9.7 +9.4 98 +9 +9 тепло 1027.3 1021.4 +9.7 +11.8 5
08 13.11 В 1 300 м туман 8/3 270 м
[]
+8.9 +8.8 99 +9 +9 тепло 1028.8 1022.9
07 13.11 ЮВ 1 200 м туман ?/? +8.9 +8.6 98 +9 +9 по сезону 1028.0 1022.1
09 13.11 ЮВ 1 1200 м дымка н/о +10.2 +10.2 100 +10 +10 по сезону 1029.1 1023.2
10 13.11 В 1 27 км 9/9 240 м
[]
+12.3 +11.7 96 +13 +13 тепло 1029.5 1023.6
11 13.11 СВ 1 30 км н/о +13.5 +11.7 89 +14 +14 тепло 1029.3 1023.5
12 13.11 СВ 2 35 км н/о +14.3 +11.3 82 +14 +14 тепло 1029.0 1023.2
14 13.11 СВ 2 35 км н/о +15.6 +9.5 67 +16 +16 тепло 1028.2 1022.4
13 13.11 СВ 2 45 км н/о +15.6 +10.4 71 +16 +16 тепло 1028.5 1022.7
15 13.11 СВ 2 40 км н/о +15.6 +8.6 63 +16 +16 тепло 1028.0 1022.2
16 13.11 В 2 50 км н/о +15.2 +9.1 67 +15 +15 тепло 1027.7 1021.9
17 13.11 В 2 60 км н/о +13.7 +8.3 70 +14 +14 тепло 1027.7 1021.9
18 13.11 СВ 1 35 км н/о +12.2 +9.0 81 +12 +12 тепло 1027.9 1022.0 +8.6 +15.9
20 13.11 В 1 25 км н/о +10.7 +8.8 88 +11 +11 тепло 1027.8 1021.9
19 13.11 СВ 1 27 км н/о +11.5 +8.9 84 +11 +11 тепло 1028.1 1022.2
21 13.11 В 1 17 км н/о +9.6 +8.5 93 +10 +10 по сезону 1027.5 1021.6
22 13.11 В 1 8000 м н/о +9.5 +8.9 96 +10 +10 тепло 1026.9 1021.0
23 13.11 В 1 200 м туман н/о +8.7 +8.2 97 +9 +9 тепло 1026.4 1020.5
00 14.11 В 1 2400 м дымка н/о +8.4 +8.1 98 +7 +7 по сезону 1026.2 1020.3
02 14.11 В 1 800 м туман н/о +8.2 +8.1 99 +7 +7 тепло 1025.2 1019.3
01 14.11 СВ 1 200 м туман н/о +7.8 +7.4 97 +8 +8 тепло 1025.6 1019.7
03 14.11 В 1 1200 м дымка н/о +8.5 +8.4 99 +8 +8 по сезону 1024.6 1018.7
04 14.11 В 2 1200 м дымка н/о +8.5 +8.4 99 +7 +7 тепло 1024.2 1018.3
05 14.11 В 1 500 м туман ?/? +9.3 +9.3 100 +8 +8 тепло 1024.2 1018.3
06 14.11 В 2 1300 м дымка ?/? +10.0 +10.0 100 +9 +9 тепло 1023.8 1017.9 +7.4 +12.2
08 14.11 В 1 4300 м дымка 10/10 90 м
[]
+10.7 +10.5 99 +10 +10 тепло 1024.1 1018.2
07 14.11 В 1 200 м туман ?/? +10.7 +10.7 100 +11 +11 тепло 1023.9 1018.0
09 14.11 ЮВ 2 4900 м дымка 10/10 90 м
[]
+12.0 +11.8 99 +11 +11 тепло 1023.8 1018.0
10 14.11 ЮВ 2 10 км 9/9 150 м
[]
+13.9 +13.1 95 +13 +13 тепло 1023.5 1017.7
11 14.11 ЮВ 2 8000 м н/о +16.3 +13.6 84 +16 +16 тепло 1022.9 1017.2
12 14.11 ЮВ 3 10 км н/о +17.4 +13.3 77 +17 +17 тепло 1022.1 1016.4
14 14.11 ЮВ 3 29 км н/о +17.3 +13.0 76 +17 +17 тепло 1021.1 1015.4
13 14.11 ЮВ 3 13 км н/о +18.0 +13.3 74 +18 +18 тепло 1021.4 1015.7
15 14.11 ЮВ 3 29 км н/о +16.9 +12.6 76 +17 +17 тепло 1021.1 1015.4
16 14.11 ЮВ 2 19 км н/о +16.1 +12.6 80 +16 +16 тепло 1020.8 1015.1
17 14.11 В 1 16 км 9/9
[]
+15.1 +12.8 86 +16 +16 тепло 1020.6 1014.8
18 14.11 В 1 11 км н/о +13.9 +12.6 92 +14 +14 тепло 1020.7 1014.9 +10.0 +18.0
20 14.11 В 1 4800 м дымка н/о +12.8 +12.2 96 +13 +13 тепло 1020.2 1014.4
19 14.11 В 2 8000 м н/о +13.6 +12.7 94 +13 +13 тепло 1020.5 1014.7
21 14.11 В 2 4400 м дымка н/о +12.7 +12.2 97 +12 +12 тепло 1020.0 1014.2
22 14.11 ЮВ 2 7000 м н/о +13.2 +12.4 95 +12 +12 тепло 1019.7 1013.9
23 14.11 ЮВ 2 6000 м н/о +12.8 +12.2 96 +12 +12 тепло 1019.7 1013.9
00 15.11 В 1 2700 м дымка н/о +12.4 +11.8 96 +12 +12 тепло 1019.6 1013.8
02 15.11 В 2 500 м туман н/о +11.8 +11.6 99 +11 +11 тепло 1019.2 1013.4
01 15.11 В 1 500 м туман н/о +11.7 +11.5 99 +11 +11 тепло 1019.5 1013.7 0.2
03 15.11 В 2 300 м туман н/о +11.3 +11.1 99 +10 +10 тепло 1018.9 1013.1 0.2
04 15.11 В 2 100 м туман ?/? +10.8 +10.6 99 +10 +10 тепло 1018.7 1012.9
05 15.11 В 2 4200 м дымка н/о +10.9 +10.7 99 +10 +10 тепло 1018.6 1012.8
06 15.11 В 2 4100 м дымка н/о +10.5 +10.3 99 +9 +9 тепло 1018.8 1013.0 +10.5 +14.0 0.4
08 15.11 В 1 4100 м дымка н/о +11.3 +11.1 99 +11 +11 тепло 1019.7 1013.9
07 15.11 В 1 100 м туман н/о +9.9 +9.6 98 +9 +9 тепло 1019.2 1013.3
09 15.11 В 1 8000 м н/о +12.9 +11.8 93 +13 +13 тепло 1019.9 1014.1
10 15.11 ЮВ 2 14 км н/о +15.2 +12.5 84 +15 +15 тепло 1020.2 1014.5
11 15.11 ЮВ 2 17 км н/о +17.0 +13.1 78 +17 +17 тепло 1020.0 1014.3
12 15.11 ЮВ 2 19 км н/о +18.0 +13.5 75 +19 +19 тепло 1019.5 1013.8
14 15.11 В 2 17 км н/о +18.7 +13.5 72 +20 +20 тепло 1018.8 1013.1
13 15.11 ЮВ 2 30 км н/о +18.8 +13.6 72 +20 +20 тепло 1018.9 1013.2
15 15.11 В 2 19 км н/о +18.7 +14.0 74 +20 +20 тепло 1018.8 1013.1
16 15.11 В 1 23 км н/о +18.0 +13.7 76 +19 +19 тепло 1018.9 1013.2
17 15.11 В 1 18 км н/о +16.0 +13.3 84 +17 +17 тепло 1018.9 1013.2
18 15.11 В 1 12 км н/о +14.4 +13.1 92 +15 +15 тепло 1019.4 1013.6 +9.9 +19.2
20 15.11 В 1 5000 м н/о +13.5 +12.6 94 +14 +14 тепло 1019.9 1014.1
19 15.11 В 1 8000 м н/о +14.3 +12.8 91 +15 +15 тепло 1019.5 1013.7
21 15.11 В 1 5000 м н/о +13.0 +12.5 97 +14 +14 тепло 1020.6 1014.8
22 15.11 В 1 4000 м дымка 10/10
[]
+12.5 +12.0 97 +13 +13 тепло 1021.0 1015.2
23 15.11 В 1 2900 м дымка н/о +12.9 +12.4 97 +13 +13 тепло 1021.0 1015.2
00 16.11 В 1 500 м туман н/о +12.4 +11.9 97 +12 +12 тепло 1020.8 1015.0
02 16.11 В 1 400 м туман н/о +11.6 +11.0 96 +11 +11 тепло 1020.7 1014.9
01 16.11 В 1 1500 м туман местами н/о +12.0 +11.4 96 +12 +12 тепло 1020.7 1014.9
03 16.11 В 1 100 м туман н/о +10.8 +10.0 95 +11 +11 тепло 1020.6 1014.8
04 16.11 В 1 600 м туман н/о +10.4 +10.1 98 +10 +10 тепло 1020.7 1014.8 0.2
05 16.11 С 1 100 м туман н/о +9.5 +8.9 96 +10 +10 тепло 1021.1 1015.2
06 16.11 В 1 100 м туман н/о +9.1 +9.0 99 +9 +9 тепло 1021.1 1015.2 +8.5 +14.8 0.2
08 16.11 В 1 4400 м дымка н/о +10.5 +10.2 98 +10 +10 тепло 1021.6 1015.7
07 16.11 В 1 400 м туман н/о +9.6 +9.5 99 +10 +10 тепло 1021.2 1015.3
09 16.11 В 2 9000 м н/о +12.2 +10.8 91 +11 +11 тепло 1021.5 1015.7
10 16.11 ЮВ 3 3300 м дымка 9/9 120 м
[]
+12.1 +11.2 94 +11 +11 тепло 1021.8 1016.0
11 16.11 ЮВ 2 7000 м 8/8 210 м
[]
+13.9 +11.9 88 +13 +14 тепло 1021.7 1015.9
12 16.11 В 2 9000 м н/о +15.8 +12.2 79 +16 +16 тепло 1021.0 1015.3
14 16.11 В 3 19 км н/о +18.7 +12.0 65 +20 +20 тепло 1019.9 1014.2
13 16.11 В 2 10 км н/о +17.4 +12.5 73 +18 +18 тепло 1020.6 1014.9
15 16.11 В 2 30 км н/о +18.6 +11.9 65 +20 +20 тепло 1019.8 1014.1
16 16.11 В 2 26 км н/о +17.8 +11.8 68 +19 +19 тепло 1019.5 1013.8
17 16.11 В 1 19 км н/о +15.6 +11.6 77 +16 +16 тепло 1019.5 1013.8
18 16.11 В 1 13 км н/о +13.1 +11.2 88 +13 +13 тепло 1019.6 1013.8 +9.1 +18.8
20 16.11 В 1 7000 м н/о +11.3 +10.4 94 +12 +12 тепло 1019.6 1013.8
19 16.11 В 1 8000 м н/о +12.1 +11.0 93 +13 +13 тепло 1019.7 1013.9
21 16.11 В 1 6000 м н/о +11.0 +10.5 97 +11 +11 тепло 1019.4 1013.6
22 16.11 В 1 300 м туман н/о +10.1 +9.5 96 +10 +10 тепло 1019.6 1013.7
23 16.11 В 1 500 м туман н/о +9.9 +9.6 98 +9 +9 тепло 1019.4 1013.5
00 17.11 В 1 1400 м дымка н/о +9.8 +9.5 98 +10 +10 тепло 1019.2 1013.3
02 17.11 В 1 200 м туман н/о +9.1 +8.8 98 +9 +9 тепло 1019.1 1013.2
01 17.11 СВ 1 100 м туман н/о +9.2 +8.9 98 +9 +9 тепло 1019.3 1013.4
03 17.11 В 1 1000 м туман местами н/о +9.5 +9.2 98 +9 +9 тепло 1018.8 1012.9
04 17.11 В 1 300 м туман н/о +9.0 +8.7 98 +9 +9 тепло 1018.4 1012.5
05 17.11 СВ 1 100 м туман н/о +8.7 +8.4 98 +8 +8 тепло 1018.2 1012.3
06 17.11 СВ 1 400 м туман н/о +8.3 +8.0 98 +7 +7 по сезону 1018.1 1012.2 +8.3 +13.0
08 17.11 СВ 1 4000 м дымка н/о +9.0 +8.9 99 +8 +8 тепло 1018.1 1012.2 0.2
07 17.11 СВ 1 900 м туман н/о +8.0 +7.7 98 +7 +7 по сезону 1018.0 1012.1
09 17.11 В 1 7000 м н/о +11.0 +10.1 94 +11 +11 тепло 1017.7 1011.9 0.2
10 17.11 В 2 13 км н/о +13.7 +10.7 82 +13 +13 тепло 1017.8 1012.0
11 17.11 ЮВ 2 17 км н/о +15.0 +11.0 77 +15 +15 тепло 1016.8 1011.1
12 17.11 В 2 23 км н/о +16.3 +10.8 70 +17 +17 тепло 1016.1 1010.4
14 17.11 СВ 2 27 км н/о +17.6 +10.9 65 +18 +18 тепло 1014.7 1009.0
13 17.11 В 2 19 км н/о +16.9 +11.0 68 +17 +17 тепло 1015.3 1009.6
15 17.11 СВ 2 28 км н/о +17.4 +10.0 62 +18 +18 тепло 1014.3 1008.6
16 17.11 СВ 2 30 км н/о +16.4 +10.5 68 +17 +17 тепло 1014.2 1008.5
17 17.11 С 2 12 км н/о +13.0 +10.7 86 +12 +12 тепло 1014.2 1008.4
18 17.11 СВ 3 2900 м дымка 8/8 50 м
[]
+10.7 +9.8 94 +9 +9 по сезону 1014.3 1008.5 +7.9 +17.8
20 17.11 СВ 3 100 м туман ?/? +8.8 +8.8 100 +6 +6 тепло 1014.2 1008.4
19 17.11 СВ 2 300 м туман ?/? +9.5 +9.4 99 +8 +8 тепло 1014.2 1008.4

 

Местоположение метеостанции Bordeaux (Франция): широта 44.83 долгота -0.68 высота над уровнем моря 61 м.

В архиве по умолчанию представлена погода в Bordeaux за последнюю неделю. Архивные данные за месяц целиком и за предыдущие месяцы, начиная с января 2011 года, Вы можете получить, выбрав интересующий диапазон дат из раскрывающегося списка и нажав кнопку "Ввод!".


*Определитесь, кто Вы:
робот инопланетянин человек

Внимание! Время в таблицах - всемирное. Для получения местного времени необходимо прибавить поправку, которая в Bordeaux равна 1 ч.

Смотрите также архив погоды в соседних городах и на ближайших метеорологических станциях:

Погода в Cazaux (Франция) (49 км)
Погода в Cap Ferret (Франция) (50 км)
Погода в Biscarosse (Франция) (63 км)
Погода в Bergerac (Франция) (95 км)
Погода в Cognac (Франция) (98 км)
Погода в Mont-de-Marsan (Франция) (102 км)
Погода в Agen (Франция) (125 км)
Погода в Perigeux (Франция) (125 км)
Погода в Dax (Франция) (132 км)
Погода в Chassiron (Франция) (147 км)

Пояснения к столбцам:

Ветер - указаны скорость ветра в м/с - средняя за 10 мин, порывы в срок и между сроками (в фигурных скобках) и направление, откуда дует ветер: С - северный, СВ - северо-восточный, В - восточный, ЮВ - юго-восточный, Ю - южный, ЮЗ - юго-западный, З - западный, СЗ - северо-западный.
Видимость - горизонтальная дальность видимости в метрах или километрах. При видимости от 1 до 10 км при отсутствии осадков обычно наблюдается дымка, при ухудшении видимости до 1 км и менее - туман. В сухую погоду видимость может ухудшаться дымом, пылью или мглою.
Явления - указаны атмосферные явления, наблюдавшиеся в срок или в последний час перед сроком; фигурными скобками обозначены явления, наблюдавшиеся между сроками (за 1-3 часа до срока); квадратными скобками обозначены град или гололедные отложения с указанием их диаметра в мм.
Облачность - указаны через наклонную черту общая и нижняя облачность в баллах и высота нижней границы облаков в метрах; квадратными скобками обозначены формы облаков: Ci - перистые, Cs - перисто-слоистые, Cc - перисто-кучевые, Ac - высококучевые, As - высокослоистые, Sc - слоисто-кучевые, Ns - слоисто-дождевые, Cu - кучевые, Cb - кучево-дождевые. Подробнее классификацию облаков см. в Атласе облаков (PDF).
T - Температура воздуха - температура, измеренная на высоте 2 м над землей.
Td - Температура точки росы - температура, при понижении до которой содержащийся в воздухе водяной пар достигнет насыщения.
f - Относительная влажность воздуха - влажноcть воздуха, измеренная на высоте 2 м над землей.
Te - Эффективная температура - температура, которую ощущает одетый по сезону человек в тени. Характеристика душности погоды. При расчете учитывается влияние влажности воздуха и скорости ветра на теплоощущения человека.
Tes - Эффективная температура на солнце - температура, которую ощущает человек, с поправкой на солнечный нагрев. Характеристика знойности погоды. Зависит от высоты солнца над горизонтом, облачности и скорости ветра. Ночью, в пасмурную погоду, а также при ветре 12 м/с и более поправка равна нулю.
P - Атмосферное давление - приведенное к уровню моря атмосферное давление.
Po - Атмосферное давление - измеренное на уровне метеостанции атмосферное давление.
Tmin - Минимальная температура - минимум температуры воздуха на высоте 2 м над землей.
Tmax - Максимальная температура - максимум температуры воздуха на высоте 2 м над землей.
R - Количество осадков - Количество выпавших осадков за период времени, мм. При наведении курсора мыши на число - период времени, за который выпало указанное количество осадков.
R24 - Количество осадков - Количество выпавших осадков за 24 часа, мм.
S - Снежный покров - Высота снежного покрова, см. При наведении курсора мыши на число - состояние снежного покрова и степень покрытия местности в баллах.